QPF
0.00 0.00 0.00 0.00 0.00 0.00 0.00 0.00 0.00 0.00 0.00 0.00 0.00 0.00 0.00 0.00 0.00 0.00 0.00 0.00 0.00 0.00 0.00 0.00 0.00 0.00 0.00 0.00 0.00 0.00 0.00 0.00 0.00 0.00 0.00 0.00 0.00 0.00 0.00 0.00 0.00 0.00 0.00 0.00 0.00 0.00 0.00 0.00 0.00 0.00 0.00 0.00 0.00 0.00 0.00 0.00 0.00 0.00 0.00 0.00 0.00 0.00 0.00 0.00 0.00 0.00 0.00 0.00 0.00
0.00 0.00 0.00 0.00 0.00 0.00 0.00 0.00 0.00 0.00 0.00 0.00 0.00 0.00 0.00 0.00 0.00 0.00 0.00 0.00 0.00 0.00 0.00 0.00 0.00 0.00 0.00 0.00 0.00 0.00 0.00 0.00 0.00 0.00 0.00 0.00 0.00 0.00 0.00 0.00 0.00 0.00 0.00 0.00 0.00 0.00 0.00 0.00 0.00 0.00 0.00 0.00 0.00 0.00 0.00 0.00 0.00 0.00 0.00 0.00 0.00 0.00 0.00 0.00 0.00 0.00 0.00 0.00 0.00
0.00 0.00 0.00 0.00 0.00 0.00 0.00 0.00 0.00 0.00 0.00 0.00 0.00 0.00 0.00 0.00 0.00 0.00 0.00 0.00 0.00 0.00 0.00 0.00 0.00 0.00 0.00 0.00 0.00 0.00 0.00 0.00 0.00 0.00 0.00 0.00 0.00 0.00 0.00 0.00 0.00 0.00 0.00 0.00 0.00 0.00 0.00 0.00 0.00 0.00 0.00 0.00 0.00 0.00 0.00 0.00 0.00 0.00 0.00 0.00 0.00 0.00 0.00 0.00 0.00 0.00 0.00 0.00 0.00
0.00 0.00 0.00 0.00 0.00 0.00 0.00 0.00 0.00 0.00 0.00 0.00 0.00 0.00 0.00 0.00 0.00 0.00 0.00 0.00 0.00 0.00 0.00 0.00 0.00 0.00 0.00 0.00 0.00 0.00 0.00 0.00 0.00 0.00 0.00 0.00 0.00 0.00 0.00 0.00 0.00 0.00 0.00 0.00 0.00 0.00 0.00 0.00 0.00 0.00 0.00 0.00 0.00 0.00 0.00 0.00 0.00 0.00 0.00 0.00 0.00 0.00 0.00 0.00 0.00 0.00 0.00 0.00 0.00
0.00 0.00 0.00 0.00 0.00 0.00 0.00 0.00 0.00 0.00 0.00 0.00 0.00 0.00 0.00 0.00 0.00 0.00 0.00 0.00 0.00 0.00 0.00 0.00 0.00 0.00 0.00 0.00 0.00 0.00 0.00 0.00 0.00 0.00 0.00 0.00 0.00 0.00 0.00 0.00 0.00 0.00 0.00 0.00 0.00 0.00 0.00 0.00 0.00 0.00 0.00 0.00 0.00 0.00 0.00 0.00 0.00 0.00 0.00 0.00 0.00 0.00 0.00 0.00 0.00 0.00 0.00 0.00 0.00
0.00 0.00 0.00 0.00 0.00 0.00 0.00 0.00 0.00 0.00 0.00 0.00 0.00 0.00 0.00 0.00 0.00 0.00 0.00 0.00 0.00 0.00 0.00 0.00 0.00 0.00 0.00 0.00 0.00 0.00 0.00 0.00 0.00 0.00 0.00 0.00 0.00 0.00 0.00 0.00 0.00 0.00 0.00 0.00 0.00 0.00 0.00 0.00 0.00 0.00 0.00 0.00 0.00 0.00 0.00 0.00 0.00 0.00 0.00 0.00 0.00 0.00 0.00 0.00 0.00 0.00 0.00 0.00 0.00
0.00 0.00 0.00 0.00 0.00 0.00 0.00 0.00 0.00 0.00 0.00 0.00 0.00 0.00 0.00 0.00 0.00 0.00 0.00 0.00 0.00 0.00 0.00 0.00 0.00 0.00 0.00 0.00 0.00 0.00 0.00 0.00 0.00 0.00 0.00 0.00 0.00 0.00 0.00 0.00 0.00 0.00 0.00 0.00 0.00 0.00 0.00 0.00 0.00 0.00 0.00 0.00 0.00 0.00 0.00 0.00 0.00 0.00 0.00 0.00 0.00 0.00 0.00 0.00 0.00 0.00 0.00 0.00 0.00
0.00 0.00 0.00 0.00 0.00 0.00 0.00 0.00 0.00 0.00 0.00 0.00 0.00 0.00 0.00 0.00 0.00 0.00 0.00 0.00 0.00 0.00 0.00 0.00 0.00 0.00 0.00 0.00 0.00 0.00 0.00 0.00 0.00 0.00 0.00 0.00 0.00 0.00 0.00 0.00 0.00 0.00 0.00 0.00 0.00 0.00 0.00 0.00 0.00 0.00 0.00 0.00 0.00 0.00 0.00 0.00 0.00 0.00 0.00 0.00 0.00 0.00 0.00 0.00 0.00 0.00 0.00 0.00 0.00
0.00 0.00 0.00 0.00 0.00 0.00 0.00 0.00 0.00 0.00 0.00 0.00 0.00 0.00 0.00 0.00 0.00 0.00 0.00 0.00 0.00 0.00 0.00 0.00 0.00 0.00 0.00 0.00 0.00 0.00 0.00 0.00 0.00 0.00 0.00 0.00 0.00 0.00 0.00 0.00 0.00 0.00 0.00 0.00 0.00 0.00 0.00 0.00 0.00 0.00 0.00 0.00 0.00 0.00 0.00 0.00 0.00 0.00 0.00 0.00 0.00 0.00 0.00 0.00 0.00 0.00 0.00 0.00 0.00
0.00 0.00 0.00 0.00 0.00 0.00 0.00 0.00 0.00 0.00 0.00 0.00 0.00 0.00 0.00 0.00 0.00 0.00 0.00 0.00 0.00 0.00 0.00 0.00 0.00 0.00 0.00 0.00 0.00 0.00 0.00 0.00 0.00 0.00 0.00 0.00 0.00 0.00 0.00 0.00 0.00 0.00 0.00 0.00 0.00 0.00 0.00 0.00 0.00 0.00 0.00 0.00 0.00 0.00 0.00 0.00 0.00 0.00 0.00 0.00 0.00 0.00 0.00 0.00 0.00 0.00 0.00 0.00 0.00
0.00 0.00 0.00 0.00 0.00 0.00 0.00 0.00 0.00 0.00 0.00 0.00 0.00 0.00 0.00 0.00 0.00 0.00 0.00 0.00 0.00 0.00 0.00 0.00 0.00 0.00 0.00 0.00 0.00 0.00 0.00 0.00 0.00 0.00 0.00 0.00 0.00 0.00 0.00 0.00 0.00 0.00 0.00 0.00 0.00 0.00 0.00 0.00 0.00 0.00 0.00 0.00 0.00 0.00 0.00 0.00 0.00 0.00 0.00 0.00 0.00 0.00 0.00 0.00 0.00 0.00 0.00 0.00 0.00
0.00 0.00 0.00 0.00 0.00 0.00 0.00 0.00 0.00 0.00 0.00 0.00 0.00 0.00 0.00 0.00 0.00 0.00 0.00 0.00 0.00 0.00 0.00 0.00 0.00 0.00 0.00 0.00 0.00 0.00 0.00 0.00 0.00 0.00 0.00 0.00 0.00 0.00 0.00 0.00 0.00 0.00 0.00 0.00 0.00 0.00 0.00 0.00 0.00 0.00 0.00 0.00 0.00 0.00 0.00 0.00 0.00 0.00 0.00 0.00 0.00 0.00 0.00 0.00 0.00 0.00 0.00 0.00 0.00
0.00 0.00 0.00 0.00 0.00 0.00 0.00 0.00 0.00 0.00 0.00 0.00 0.00 0.00 0.00 0.00 0.00 0.00 0.00 0.00 0.00 0.00 0.00 0.00 0.00 0.00 0.00 0.00 0.00 0.00 0.00 0.00 0.00 0.00 0.00 0.00 0.00 0.00 0.00 0.00 0.00 0.00 0.00 0.00 0.00 0.00 0.00 0.00 0.00 0.00 0.00 0.00 0.00 0.00 0.00 0.00 0.00 0.00 0.00 0.00 0.00 0.00 0.00 0.00 0.00 0.00 0.00 0.00 0.00
0.00 0.00 0.00 0.00 0.00 0.00 0.00 0.00 0.00 0.00 0.00 0.00 0.00 0.00 0.00 0.00 0.00 0.00 0.00 0.00 0.00 0.00 0.00 0.00 0.00 0.00 0.00 0.00 0.00 0.00 0.00 0.00 0.00 0.00 0.00 0.00 0.00 0.00 0.00 0.00 0.00 0.00 0.00 0.00 0.00 0.00 0.00 0.00 0.00 0.00 0.00 0.00 0.00 0.00 0.00 0.00 0.00 0.00 0.00 0.00 0.00 0.00 0.00 0.00 0.00 0.00 0.00 0.00 0.00
0.00 0.00 0.00 0.00 0.00 0.00 0.00 0.00 0.00 0.00 0.00 0.00 0.00 0.00 0.00 0.00 0.00 0.00 0.00 0.00 0.00 0.00 0.00 0.00 0.00 0.00 0.00 0.00 0.00 0.00 0.00 0.00 0.00 0.00 0.00 0.00 0.00 0.00 0.00 0.00 0.00 0.00 0.00 0.00 0.00 0.00 0.00 0.00 0.00 0.00 0.00 0.00 0.00 0.00 0.00 0.00 0.00 0.00 0.00 0.00 0.00 0.00 0.00 0.00 0.00 0.00 0.00 0.00 0.00
0.00 0.00 0.00 0.00 0.00 0.00 0.00 0.00 0.00 0.00 0.00 0.00 0.00 0.00 0.00 0.00 0.00 0.00 0.00 0.00 0.00 0.00 0.00 0.00 0.00 0.00 0.00 0.00 0.00 0.00 0.00 0.00 0.00 0.00 0.00 0.00 0.00 0.00 0.00 0.00 0.00 0.00 0.00 0.00 0.00 0.00 0.00 0.00 0.00 0.00 0.00 0.00 0.00 0.00 0.00 0.00 0.00 0.00 0.00 0.00 0.00 0.00 0.00 0.00 0.00 0.00 0.00 0.00 0.00
0.00 0.00 0.00 0.00 0.00 0.00 0.00 0.00 0.00 0.00 0.00 0.00 0.00 0.00 0.00 0.00 0.00 0.00 0.00 0.00 0.00 0.00 0.00 0.00 0.00 0.00 0.00 0.00 0.00 0.00 0.00 0.00 0.00 0.00 0.00 0.00 0.00 0.00 0.00 0.00 0.00 0.00 0.00 0.00 0.00 0.00 0.00 0.00 0.00 0.00 0.00 0.00 0.00 0.00 0.00 0.00 0.00 0.00 0.00 0.00 0.00 0.00 0.00 0.00 0.00 0.00 0.00 0.00 0.00
0.00 0.00 0.00 0.00 0.00 0.00 0.00 0.00 0.00 0.00 0.00 0.00 0.00 0.00 0.00 0.00 0.00 0.00 0.00 0.00 0.00 0.00 0.00 0.00 0.00 0.00 0.00 0.00 0.00 0.00 0.00 0.00 0.00 0.00 0.00 0.00 0.00 0.00 0.00 0.00 0.00 0.00 0.00 0.00 0.00 0.00 0.00 0.00 0.00 0.00 0.00 0.00 0.00 0.00 0.00 0.00 0.00 0.00 0.00 0.00 0.00 0.00 0.00 0.00 0.00 0.00 0.00 0.00 0.00
0.00 0.00 0.00 0.00 0.00 0.00 0.00 0.00 0.00 0.00 0.00 0.00 0.00 0.00 0.00 0.00 0.00 0.00 0.00 0.00 0.00 0.00 0.00 0.00 0.00 0.00 0.00 0.00 0.00 0.00 0.00 0.00 0.00 0.00 0.00 0.00 0.00 0.00 0.00 0.00 0.00 0.00 0.00 0.00 0.00 0.00 0.00 0.00 0.00 0.00 0.00 0.00 0.00 0.00 0.00 0.00 0.00 0.00 0.00 0.00 0.00 0.00 0.00 0.00 0.00 0.00 0.00 0.00 0.00
0.00 0.00 0.00 0.00 0.00 0.00 0.00 0.00 0.00 0.00 0.00 0.00 0.00 0.00 0.00 0.00 0.00 0.00 0.00 0.00 0.00 0.00 0.00 0.00 0.00 0.00 0.00 0.00 0.00 0.00 0.00 0.00 0.00 0.00 0.00 0.00 0.00 0.00 0.00 0.00 0.00 0.00 0.00 0.00 0.00 0.00 0.00 0.00 0.00 0.00 0.00 0.00 0.00 0.00 0.00 0.00 0.00 0.00 0.00 0.00 0.00 0.00 0.00 0.00 0.00 0.00 0.00 0.00 0.00
0.00 0.00 0.00 0.00 0.00 0.00 0.00 0.00 0.00 0.00 0.00 0.00 0.00 0.00 0.00 0.00 0.00 0.00 0.00 0.00 0.00 0.00 0.00 0.00 0.00 0.00 0.00 0.00 0.00 0.00 0.00 0.00 0.00 0.00 0.00 0.00 0.00 0.00 0.00 0.00 0.00 0.00 0.00 0.00 0.00 0.00 0.00 0.00 0.00 0.00 0.00 0.00 0.00 0.00 0.00 0.00 0.00 0.00 0.00 0.00 0.00 0.00 0.00 0.00 0.00 0.00 0.00 0.00 0.00
0.00 0.00 0.00 0.00 0.00 0.00 0.00 0.00 0.00 0.00 0.00 0.00 0.00 0.00 0.00 0.00 0.00 0.00 0.00 0.00 0.00 0.00 0.00 0.00 0.00 0.00 0.00 0.00 0.00 0.00 0.00 0.00 0.00 0.00 0.00 0.00 0.00 0.00 0.00 0.00 0.00 0.00 0.00 0.00 0.00 0.00 0.00 0.00 0.00 0.00 0.00 0.00 0.00 0.00 0.00 0.00 0.00 0.00 0.00 0.00 0.00 0.00 0.00 0.00 0.00 0.00 0.00 0.00 0.00
0.00 0.00 0.00 0.00 0.00 0.00 0.00 0.00 0.00 0.00 0.00 0.00 0.00 0.00 0.00 0.00 0.00 0.00 0.00 0.00 0.00 0.00 0.00 0.00 0.00 0.00 0.00 0.00 0.00 0.00 0.00 0.00 0.00 0.00 0.00 0.00 0.00 0.00 0.00 0.00 0.00 0.00 0.00 0.00 0.00 0.00 0.00 0.00 0.00 0.00 0.00 0.00 0.00 0.00 0.00 0.00 0.00 0.00 0.00 0.00 0.00 0.00 0.00 0.00 0.00 0.00 0.00 0.00 0.00
0.00 0.00 0.00 0.00 0.00 0.00 0.00 0.00 0.00 0.00 0.00 0.00 0.00 0.00 0.00 0.00 0.00 0.00 0.00 0.00 0.00 0.00 0.00 0.00 0.00 0.00 0.00 0.00 0.00 0.00 0.00 0.00 0.00 0.00 0.00 0.00 0.00 0.00 0.00 0.00 0.00 0.00 0.00 0.00 0.00 0.00 0.00 0.00 0.00 0.00 0.00 0.00 0.00 0.00 0.00 0.00 0.00 0.00 0.00 0.00 0.00 0.00 0.00 0.00 0.00 0.00 0.00 0.00 0.00
0.00 0.00 0.00 0.00 0.00 0.00 0.00 0.00 0.00 0.00 0.00 0.00 0.00 0.00 0.00 0.00 0.00 0.00 0.00 0.00 0.00 0.00 0.00 0.00 0.00 0.00 0.00 0.00 0.00 0.00 0.00 0.00 0.00 0.00 0.00 0.00 0.00 0.00 0.00 0.00 0.00 0.00 0.00 0.00 0.00 0.00 0.00 0.00 0.00 0.00 0.00 0.00 0.00 0.00 0.00 0.00 0.00 0.00 0.00 0.00 0.00 0.00 0.00 0.00 0.00 0.00 0.00 0.00 0.00
0.00 0.00 0.00 0.00 0.00 0.00 0.00 0.00 0.00 0.00 0.00 0.00 0.00 0.00 0.00 0.00 0.00 0.00 0.00 0.00 0.00 0.00 0.00 0.00 0.00 0.00 0.00 0.00 0.00 0.00 0.00 0.00 0.00 0.00 0.00 0.00 0.00 0.00 0.00 0.00 0.00 0.00 0.00 0.00 0.00 0.00 0.00 0.00 0.00 0.00 0.00 0.00 0.00 0.00 0.00 0.00 0.00 0.00 0.00 0.00 0.00 0.00 0.00 0.00 0.00 0.00 0.00 0.00 0.00
0.00 0.00 0.00 0.00 0.00 0.00 0.00 0.00 0.00 0.00 0.00 0.00 0.00 0.00 0.00 0.00 0.00 0.00 0.00 0.00 0.00 0.00 0.00 0.00 0.00 0.00 0.00 0.00 0.00 0.00 0.00 0.00 0.00 0.00 0.00 0.00 0.00 0.00 0.00 0.00 0.00 0.00 0.00 0.00 0.00 0.00 0.00 0.00 0.00 0.00 0.00 0.00 0.00 0.00 0.00 0.00 0.00 0.00 0.00 0.00 0.00 0.00 0.00 0.00 0.00 0.00 0.00 0.00 0.00
0.00 0.00 0.00 0.00 0.00 0.00 0.00 0.00 0.00 0.00 0.00 0.00 0.00 0.00 0.00 0.00 0.00 0.00 0.00 0.00 0.00 0.00 0.00 0.00 0.00 0.00 0.00 0.00 0.00 0.00 0.00 0.00 0.00 0.00 0.00 0.00 0.00 0.00 0.00 0.00 0.00 0.00 0.00 0.00 0.00 0.00 0.00 0.00 0.00 0.00 0.00 0.00 0.00 0.00 0.00 0.00 0.00 0.00 0.00 0.00 0.00 0.00 0.00 0.00 0.00 0.00 0.00 0.00 0.00
0.00 0.00 0.00 0.00 0.00 0.00 0.00 0.00 0.00 0.00 0.00 0.00 0.00 0.00 0.00 0.00 0.00 0.00 0.00 0.00 0.00 0.00 0.00 0.00 0.00 0.00 0.00 0.00 0.00 0.00 0.00 0.00 0.00 0.00 0.00 0.00 0.00 0.00 0.00 0.00 0.00 0.00 0.00 0.00 0.00 0.00 0.00 0.00 0.00 0.00 0.00 0.00 0.00 0.00 0.00 0.00 0.00 0.00 0.00 0.00 0.00 0.00 0.00 0.00 0.00 0.00 0.00 0.00 0.00
0.00 0.00 0.00 0.00 0.00 0.00 0.00 0.00 0.00 0.00 0.00 0.00 0.00 0.00 0.00 0.00 0.00 0.00 0.00 0.00 0.00 0.00 0.00 0.00 0.00 0.00 0.00 0.00 0.00 0.00 0.00 0.00 0.00 0.00 0.00 0.00 0.00 0.00 0.00 0.00 0.00 0.00 0.00 0.00 0.00 0.00 0.00 0.00 0.00 0.00 0.00 0.00 0.00 0.00 0.00 0.00 0.00 0.00 0.00 0.00 0.00 0.00 0.00 0.00 0.00 0.00 0.00 0.00 0.00
0.00 0.00 0.00 0.00 0.00 0.00 0.00 0.00 0.00 0.00 0.00 0.00 0.00 0.00 0.00 0.00 0.00 0.00 0.00 0.00 0.00 0.00 0.00 0.00 0.00 0.00 0.00 0.00 0.00 0.00 0.00 0.00 0.00 0.00 0.00 0.00 0.00 0.00 0.00 0.00 0.00 0.00 0.00 0.00 0.00 0.00 0.00 0.00 0.00 0.00 0.00 0.00 0.00 0.00 0.00 0.00 0.00 0.00 0.00 0.00 0.00 0.00 0.00 0.00 0.00 0.00 0.00 0.00 0.00
0.00 0.00 0.00 0.00 0.00 0.00 0.00 0.00 0.00 0.00 0.00 0.00 0.00 0.00 0.00 0.00 0.00 0.00 0.00 0.00 0.00 0.00 0.00 0.00 0.00 0.00 0.00 0.00 0.00 0.00 0.00 0.00 0.00 0.00 0.00 0.00 0.00 0.00 0.00 0.00 0.00 0.00 0.00 0.00 0.00 0.00 0.00 0.00 0.00 0.00 0.00 0.00 0.00 0.00 0.00 0.00 0.00 0.00 0.00 0.00 0.00 0.00 0.00 0.00 0.00 0.00 0.00 0.00 0.00
0.00 0.00 0.00 0.00 0.00 0.00 0.00 0.00 0.00 0.00 0.00 0.00 0.00 0.00 0.00 0.00 0.00 0.00 0.00 0.00 0.00 0.00 0.00 0.00 0.00 0.00 0.00 0.00 0.00 0.00 0.00 0.00 0.00 0.00 0.00 0.00 0.00 0.00 0.00 0.00 0.00 0.00 0.00 0.00 0.00 0.00 0.00 0.00 0.00 0.00 0.00 0.00 0.00 0.00 0.00 0.00 0.00 0.00 0.00 0.00 0.00 0.00 0.00 0.00 0.00 0.00 0.00 0.00 0.00
0.00 0.00 0.00 0.00 0.00 0.00 0.00 0.00 0.00 0.00 0.00 0.00 0.00 0.00 0.00 0.00 0.00 0.00 0.00 0.00 0.00 0.00 0.00 0.00 0.00 0.00 0.00 0.00 0.00 0.00 0.00 0.00 0.00 0.00 0.00 0.00 0.00 0.00 0.00 0.00 0.00 0.00 0.00 0.00 0.00 0.00 0.00 0.00 0.00 0.00 0.00 0.00 0.00 0.00 0.00 0.00 0.00 0.00 0.00 0.00 0.00 0.00 0.00 0.00 0.00 0.00 0.00 0.00 0.00
0.00 0.00 0.00 0.00 0.00 0.00 0.00 0.00 0.00 0.00 0.00 0.00 0.00 0.00 0.00 0.00 0.00 0.00 0.00 0.00 0.00 0.00 0.00 0.00 0.00 0.00 0.00 0.00 0.00 0.00 0.00 0.00 0.00 0.00 0.00 0.00 0.00 0.00 0.00 0.00 0.00 0.00 0.00 0.00 0.00 0.00 0.00 0.00 0.00 0.00 0.00 0.00 0.00 0.00 0.00 0.00 0.00 0.00 0.00 0.00 0.00 0.00 0.00 0.00 0.00 0.00 0.00 0.00 0.00
0.00 0.00 0.00 0.00 0.00 0.00 0.00 0.00 0.00 0.00 0.00 0.00 0.00 0.00 0.00 0.00 0.00 0.00 0.00 0.00 0.00 0.00 0.00 0.00 0.00 0.00 0.00 0.00 0.00 0.00 0.00 0.00 0.00 0.00 0.00 0.00 0.00 0.00 0.00 0.00 0.00 0.00 0.00 0.00 0.00 0.00 0.00 0.00 0.00 0.00 0.00 0.00 0.00 0.00 0.00 0.00 0.00 0.00 0.00 0.00 0.00 0.00 0.00 0.00 0.00 0.00 0.00 0.00 0.00
0.00 0.00 0.00 0.00 0.00 0.00 0.00 0.00 0.00 0.00 0.00 0.00 0.00 0.00 0.00 0.00 0.00 0.00 0.00 0.00 0.00 0.00 0.00 0.00 0.00 0.00 0.00 0.00 0.00 0.00 0.00 0.00 0.00 0.00 0.00 0.00 0.00 0.00 0.00 0.00 0.00 0.00 0.00 0.00 0.00 0.00 0.00 0.00 0.00 0.00 0.00 0.00 0.00 0.00 0.00 0.00 0.00 0.00 0.00 0.00 0.00 0.00 0.00 0.00 0.00 0.00 0.00 0.00 0.00
0.00 0.00 0.00 0.00 0.00 0.00 0.00 0.00 0.00 0.00 0.00 0.00 0.00 0.00 0.00 0.00 0.00 0.00 0.00 0.00 0.00 0.00 0.00 0.00 0.00 0.00 0.00 0.00 0.00 0.00 0.00 0.00 0.00 0.00 0.00 0.00 0.00 0.00 0.00 0.00 0.00 0.00 0.00 0.00 0.00 0.00 0.00 0.00 0.00 0.00 0.00 0.00 0.00 0.00 0.00 0.00 0.00 0.00 0.00 0.00 0.00 0.00 0.00 0.00 0.00 0.00 0.00 0.00 0.00
0.00 0.00 0.00 0.00 0.00 0.00 0.00 0.00 0.00 0.00 0.00 0.00 0.00 0.00 0.00 0.00 0.00 0.00 0.00 0.00 0.00 0.00 0.00 0.00 0.00 0.00 0.00 0.00 0.00 0.00 0.00 0.00 0.00 0.00 0.00 0.00 0.00 0.00 0.00 0.00 0.00 0.00 0.00 0.00 0.00 0.00 0.00 0.00 0.00 0.00 0.00 0.00 0.00 0.00 0.00 0.00 0.00 0.00 0.00 0.00 0.00 0.00 0.00 0.00 0.00 0.00 0.00 0.00 0.00
0.00 0.00 0.00 0.00 0.00 0.00 0.00 0.00 0.00 0.00 0.00 0.00 0.00 0.00 0.00 0.00 0.00 0.00 0.00 0.00 0.00 0.00 0.00 0.00 0.00 0.00 0.00 0.00 0.00 0.00 0.00 0.00 0.00 0.00 0.00 0.00 0.00 0.00 0.00 0.00 0.00 0.00 0.00 0.00 0.00 0.00 0.00 0.00 0.00 0.00 0.00 0.00 0.00 0.00 0.00 0.00 0.00 0.00 0.00 0.00 0.00 0.00 0.00 0.00 0.00 0.00 0.00 0.00 0.00
0.00 0.00 0.00 0.00 0.00 0.00 0.00 0.00 0.00 0.00 0.00 0.00 0.00 0.00 0.00 0.00 0.00 0.00 0.00 0.00 0.00 0.00 0.00 0.00 0.00 0.00 0.00 0.00 0.00 0.00 0.00 0.00 0.00 0.00 0.00 0.00 0.00 0.00 0.00 0.00 0.00 0.00 0.00 0.00 0.00 0.00 0.00 0.00 0.00 0.00 0.00 0.00 0.00 0.00 0.00 0.00 0.00 0.00 0.00 0.00 0.01 0.01 0.01 0.00 0.00 0.00 0.00 0.00 0.00
MSLP
1025.07 1025.19 1025.31 1025.39 1025.43 1025.43 1025.47 1025.59 1025.71 1025.71 1025.63 1025.59 1025.59 1025.59 1025.63 1025.63 1025.67 1025.75 1025.79 1025.87 1025.91 1025.91 1025.91 1025.95 1025.95 1025.95 1025.99 1026.03 1026.03 1026.03 1026.03 1026.03 1026.03 1026.03 1026.07 1026.03 1026.03 1026.03 1026.03 1025.99 1025.95 1025.91 1025.83 1025.75 1025.71 1025.63 1025.51 1025.47 1025.35 1025.27 1025.23 1025.27 1025.19 1025.11 1025.11 1025.19 1025.15 1024.99 1024.79 1024.67 1024.55 1024.47 1024.35 1024.27 1024.15 1024.03 1023.99 1023.91 1023.79
1025.11 1025.23 1025.35 1025.47 1025.47 1025.47 1025.47 1025.51 1025.63 1025.63 1025.63 1025.63 1025.67 1025.67 1025.71 1025.75 1025.75 1025.79 1025.83 1025.91 1025.99 1026.03 1026.03 1025.99 1026.03 1026.03 1026.07 1026.07 1026.11 1026.11 1026.07 1026.03 1026.03 1026.03 1026.03 1026.03 1026.03 1026.03 1026.03 1025.99 1026.03 1026.03 1025.95 1025.87 1025.75 1025.63 1025.55 1025.47 1025.39 1025.27 1025.19 1025.19 1025.11 1025.03 1025.03 1025.11 1025.15 1024.99 1024.75 1024.63 1024.51 1024.47 1024.31 1024.23 1024.11 1024.03 1023.95 1023.87 1023.75
1025.19 1025.19 1025.23 1025.27 1025.31 1025.31 1025.31 1025.35 1025.39 1025.47 1025.55 1025.63 1025.71 1025.75 1025.79 1025.83 1025.87 1025.91 1025.91 1025.95 1026.03 1026.03 1026.03 1026.03 1026.03 1026.07 1026.11 1026.11 1026.15 1026.15 1026.11 1026.07 1026.03 1025.99 1025.95 1025.95 1025.99 1026.03 1025.99 1025.95 1025.95 1026.03 1026.03 1025.95 1025.83 1025.75 1025.67 1025.55 1025.43 1025.31 1025.23 1025.15 1025.03 1024.99 1024.91 1024.91 1024.91 1024.83 1024.71 1024.59 1024.47 1024.43 1024.31 1024.19 1024.11 1024.03 1023.95 1023.83 1023.71
1025.31 1025.31 1025.31 1025.31 1025.31 1025.35 1025.39 1025.43 1025.47 1025.55 1025.63 1025.71 1025.79 1025.83 1025.87 1025.91 1025.91 1025.91 1025.95 1025.99 1026.03 1026.07 1026.11 1026.07 1026.03 1026.11 1026.19 1026.15 1026.19 1026.19 1026.19 1026.15 1026.11 1026.03 1025.95 1025.91 1025.91 1025.91 1025.95 1025.91 1025.91 1025.87 1025.91 1025.95 1025.91 1025.91 1025.79 1025.63 1025.47 1025.27 1025.15 1025.11 1025.03 1024.95 1024.95 1024.91 1024.87 1024.79 1024.71 1024.59 1024.47 1024.39 1024.27 1024.19 1024.11 1024.03 1023.95 1023.83 1023.75
1025.43 1025.43 1025.47 1025.47 1025.47 1025.47 1025.51 1025.55 1025.63 1025.67 1025.75 1025.75 1025.79 1025.83 1025.87 1025.95 1025.95 1025.95 1025.91 1025.95 1026.03 1026.11 1026.19 1026.19 1026.19 1026.19 1026.19 1026.23 1026.19 1026.15 1026.07 1026.11 1026.15 1026.03 1025.91 1025.91 1025.87 1025.87 1025.91 1025.87 1025.79 1025.75 1025.75 1025.79 1025.83 1025.87 1025.83 1025.71 1025.43 1025.19 1025.07 1025.03 1024.99 1024.95 1024.91 1024.91 1024.83 1024.75 1024.67 1024.63 1024.47 1024.39 1024.27 1024.19 1024.15 1024.07 1024.03 1023.91 1023.79
1025.39 1025.47 1025.51 1025.59 1025.63 1025.55 1025.55 1025.67 1025.71 1025.75 1025.79 1025.87 1025.83 1025.79 1025.83 1025.91 1025.95 1025.95 1025.91 1025.95 1026.03 1026.15 1026.27 1026.31 1026.31 1026.27 1026.19 1026.19 1026.15 1026.07 1026.03 1025.99 1025.99 1025.95 1025.91 1025.91 1025.83 1025.79 1025.75 1025.75 1025.75 1025.71 1025.63 1025.63 1025.63 1025.67 1025.71 1025.63 1025.35 1025.11 1025.03 1024.99 1024.95 1024.91 1024.91 1024.91 1024.79 1024.75 1024.67 1024.59 1024.47 1024.31 1024.23 1024.19 1024.19 1024.15 1024.03 1023.91 1023.75
1025.35 1025.43 1025.47 1025.59 1025.63 1025.55 1025.55 1025.59 1025.67 1025.71 1025.75 1025.75 1025.79 1025.83 1025.87 1025.91 1025.91 1025.95 1025.99 1025.99 1026.03 1026.11 1026.19 1026.23 1026.27 1026.23 1026.19 1026.11 1026.03 1026.03 1025.99 1025.91 1025.91 1025.91 1025.87 1025.79 1025.79 1025.75 1025.71 1025.63 1025.59 1025.55 1025.51 1025.47 1025.47 1025.47 1025.47 1025.47 1025.23 1025.03 1024.91 1024.91 1024.83 1024.75 1024.79 1024.83 1024.83 1024.75 1024.67 1024.59 1024.43 1024.31 1024.19 1024.19 1024.23 1024.19 1024.03 1023.87 1023.75
1025.43 1025.47 1025.55 1025.59 1025.59 1025.55 1025.55 1025.59 1025.59 1025.59 1025.63 1025.63 1025.75 1025.87 1025.91 1025.99 1025.99 1025.99 1025.99 1025.95 1025.99 1026.03 1026.11 1026.15 1026.19 1026.19 1026.19 1026.07 1026.03 1025.99 1025.95 1025.91 1025.87 1025.83 1025.79 1025.79 1025.75 1025.71 1025.67 1025.59 1025.47 1025.43 1025.43 1025.43 1025.47 1025.43 1025.39 1025.31 1025.15 1024.99 1024.87 1024.83 1024.75 1024.67 1024.71 1024.75 1024.79 1024.75 1024.67 1024.55 1024.39 1024.27 1024.19 1024.19 1024.19 1024.11 1023.91 1023.75 1023.71
1025.43 1025.55 1025.63 1025.63 1025.63 1025.59 1025.59 1025.63 1025.63 1025.59 1025.59 1025.67 1025.75 1025.91 1026.03 1026.03 1026.03 1026.03 1025.95 1025.91 1026.03 1026.07 1026.11 1026.11 1026.19 1026.19 1026.15 1026.03 1026.03 1025.95 1025.91 1025.91 1025.87 1025.83 1025.83 1025.79 1025.75 1025.67 1025.63 1025.59 1025.51 1025.47 1025.43 1025.47 1025.43 1025.35 1025.31 1025.19 1025.03 1024.91 1024.87 1024.75 1024.67 1024.63 1024.63 1024.67 1024.67 1024.63 1024.59 1024.47 1024.31 1024.19 1024.15 1024.07 1024.03 1023.87 1023.71 1023.63 1023.55
1025.35 1025.47 1025.59 1025.59 1025.59 1025.55 1025.51 1025.55 1025.63 1025.63 1025.67 1025.71 1025.79 1025.91 1026.03 1026.07 1026.03 1025.99 1025.91 1025.95 1026.03 1026.07 1026.07 1026.07 1026.15 1026.11 1026.07 1026.03 1025.99 1025.95 1025.95 1025.91 1025.91 1025.91 1025.87 1025.83 1025.75 1025.75 1025.67 1025.63 1025.59 1025.55 1025.51 1025.47 1025.35 1025.23 1025.07 1024.99 1024.91 1024.83 1024.79 1024.75 1024.59 1024.51 1024.55 1024.55 1024.47 1024.43 1024.31 1024.19 1024.15 1024.07 1024.03 1023.99 1023.87 1023.71 1023.59 1023.51 1023.47
1025.43 1025.51 1025.55 1025.59 1025.55 1025.47 1025.47 1025.43 1025.47 1025.55 1025.63 1025.63 1025.75 1025.83 1025.91 1025.95 1025.99 1025.99 1025.99 1026.03 1026.03 1026.03 1026.03 1026.07 1026.07 1026.03 1025.99 1025.95 1025.95 1025.95 1025.99 1026.03 1025.99 1025.91 1025.87 1025.75 1025.75 1025.71 1025.71 1025.71 1025.67 1025.63 1025.51 1025.35 1025.23 1025.07 1024.95 1024.87 1024.75 1024.71 1024.67 1024.63 1024.47 1024.43 1024.39 1024.39 1024.31 1024.19 1024.11 1024.03 1023.91 1023.91 1023.87 1023.75 1023.71 1023.63 1023.51 1023.47 1023.39
1025.47 1025.59 1025.63 1025.59 1025.47 1025.43 1025.35 1025.31 1025.31 1025.39 1025.47 1025.59 1025.63 1025.67 1025.75 1025.83 1025.91 1025.99 1026.03 1026.03 1025.99 1025.95 1025.99 1026.03 1026.07 1026.03 1025.95 1025.91 1025.95 1025.99 1025.99 1025.99 1025.91 1025.87 1025.79 1025.75 1025.75 1025.75 1025.71 1025.63 1025.59 1025.47 1025.31 1025.19 1025.07 1024.95 1024.87 1024.75 1024.71 1024.63 1024.63 1024.55 1024.47 1024.39 1024.35 1024.31 1024.19 1024.11 1024.03 1023.91 1023.79 1023.71 1023.67 1023.63 1023.59 1023.55 1023.47 1023.43 1023.31
1025.51 1025.55 1025.55 1025.55 1025.47 1025.39 1025.31 1025.27 1025.27 1025.31 1025.39 1025.47 1025.55 1025.59 1025.63 1025.75 1025.87 1025.95 1025.95 1025.95 1025.91 1025.91 1025.91 1025.99 1026.03 1026.03 1025.95 1025.95 1025.95 1025.95 1025.99 1025.95 1025.91 1025.83 1025.79 1025.75 1025.75 1025.67 1025.55 1025.43 1025.31 1025.19 1025.11 1024.99 1024.95 1024.91 1024.79 1024.75 1024.71 1024.63 1024.59 1024.47 1024.47 1024.39 1024.31 1024.27 1024.19 1024.03 1023.95 1023.83 1023.71 1023.63 1023.63 1023.55 1023.51 1023.47 1023.39 1023.31 1023.27
1025.51 1025.55 1025.51 1025.47 1025.47 1025.31 1025.23 1025.19 1025.23 1025.27 1025.31 1025.43 1025.47 1025.55 1025.63 1025.67 1025.79 1025.87 1025.87 1025.87 1025.83 1025.83 1025.83 1025.87 1025.91 1025.91 1025.95 1025.99 1025.95 1025.95 1025.95 1025.91 1025.91 1025.87 1025.75 1025.67 1025.59 1025.47 1025.31 1025.23 1025.15 1025.03 1024.99 1024.91 1024.91 1024.87 1024.79 1024.71 1024.63 1024.59 1024.51 1024.47 1024.39 1024.31 1024.31 1024.23 1024.11 1024.03 1023.91 1023.83 1023.71 1023.63 1023.55 1023.47 1023.43 1023.31 1023.27 1023.19 1023.15
1025.47 1025.51 1025.51 1025.47 1025.39 1025.31 1025.23 1025.19 1025.19 1025.19 1025.23 1025.31 1025.43 1025.51 1025.59 1025.59 1025.71 1025.79 1025.87 1025.83 1025.83 1025.83 1025.79 1025.79 1025.75 1025.83 1025.91 1025.95 1025.91 1025.91 1025.91 1025.91 1025.87 1025.75 1025.63 1025.47 1025.35 1025.23 1025.19 1025.11 1025.03 1024.99 1024.91 1024.87 1024.79 1024.79 1024.75 1024.63 1024.55 1024.47 1024.43 1024.35 1024.31 1024.23 1024.19 1024.11 1024.03 1023.99 1023.91 1023.83 1023.75 1023.59 1023.47 1023.35 1023.23 1023.19 1023.11 1023.03 1022.95
1025.39 1025.47 1025.47 1025.39 1025.31 1025.27 1025.19 1025.19 1025.19 1025.19 1025.19 1025.27 1025.39 1025.47 1025.47 1025.51 1025.63 1025.75 1025.87 1025.87 1025.79 1025.75 1025.75 1025.75 1025.75 1025.75 1025.75 1025.83 1025.83 1025.87 1025.83 1025.79 1025.71 1025.55 1025.39 1025.27 1025.19 1025.11 1025.03 1024.99 1024.91 1024.87 1024.79 1024.75 1024.67 1024.63 1024.63 1024.55 1024.47 1024.39 1024.31 1024.27 1024.23 1024.19 1024.11 1024.03 1023.99 1023.91 1023.83 1023.75 1023.67 1023.51 1023.35 1023.19 1023.11 1023.03 1022.95 1022.91 1022.83
1025.31 1025.35 1025.35 1025.31 1025.31 1025.27 1025.23 1025.19 1025.19 1025.19 1025.19 1025.23 1025.31 1025.39 1025.43 1025.47 1025.51 1025.63 1025.75 1025.79 1025.75 1025.75 1025.75 1025.79 1025.75 1025.71 1025.67 1025.71 1025.75 1025.75 1025.71 1025.63 1025.47 1025.35 1025.27 1025.19 1025.07 1025.03 1024.95 1024.91 1024.79 1024.75 1024.67 1024.59 1024.51 1024.47 1024.39 1024.35 1024.35 1024.35 1024.31 1024.31 1024.23 1024.19 1024.07 1024.03 1023.95 1023.87 1023.75 1023.63 1023.55 1023.43 1023.27 1023.11 1022.99 1022.91 1022.79 1022.75 1022.75
1025.19 1025.23 1025.27 1025.31 1025.27 1025.27 1025.27 1025.23 1025.19 1025.19 1025.19 1025.23 1025.27 1025.31 1025.35 1025.43 1025.47 1025.55 1025.63 1025.75 1025.75 1025.75 1025.75 1025.75 1025.75 1025.71 1025.67 1025.63 1025.63 1025.59 1025.55 1025.47 1025.31 1025.27 1025.19 1025.15 1025.03 1024.99 1024.91 1024.75 1024.71 1024.63 1024.55 1024.47 1024.43 1024.35 1024.31 1024.27 1024.31 1024.31 1024.31 1024.27 1024.19 1024.07 1024.03 1023.91 1023.83 1023.75 1023.63 1023.59 1023.47 1023.31 1023.19 1023.03 1022.91 1022.79 1022.71 1022.63 1022.59
1024.99 1025.03 1025.15 1025.19 1025.19 1025.19 1025.19 1025.19 1025.19 1025.15 1025.15 1025.19 1025.23 1025.27 1025.31 1025.39 1025.47 1025.51 1025.55 1025.59 1025.67 1025.75 1025.71 1025.71 1025.63 1025.63 1025.63 1025.55 1025.47 1025.47 1025.47 1025.39 1025.31 1025.23 1025.19 1025.15 1025.03 1024.91 1024.79 1024.67 1024.63 1024.55 1024.47 1024.43 1024.39 1024.31 1024.31 1024.31 1024.31 1024.27 1024.27 1024.19 1024.07 1023.99 1023.91 1023.79 1023.67 1023.59 1023.51 1023.47 1023.43 1023.31 1023.15 1022.95 1022.83 1022.75 1022.67 1022.59 1022.47
1024.87 1024.91 1024.99 1025.03 1025.03 1025.07 1025.07 1025.11 1025.07 1025.07 1025.11 1025.19 1025.19 1025.23 1025.27 1025.31 1025.39 1025.43 1025.47 1025.47 1025.55 1025.63 1025.63 1025.63 1025.55 1025.47 1025.47 1025.43 1025.39 1025.39 1025.39 1025.31 1025.27 1025.19 1025.15 1025.07 1024.99 1024.87 1024.75 1024.63 1024.59 1024.51 1024.47 1024.43 1024.35 1024.31 1024.27 1024.27 1024.27 1024.27 1024.19 1024.15 1024.03 1023.91 1023.75 1023.67 1023.55 1023.47 1023.43 1023.39 1023.31 1023.19 1023.03 1022.87 1022.71 1022.59 1022.51 1022.43 1022.31
1024.75 1024.83 1024.91 1024.91 1024.95 1024.95 1024.99 1025.03 1025.03 1025.07 1025.11 1025.11 1025.15 1025.15 1025.19 1025.27 1025.31 1025.31 1025.35 1025.43 1025.47 1025.51 1025.51 1025.47 1025.43 1025.35 1025.31 1025.31 1025.31 1025.31 1025.31 1025.27 1025.19 1025.15 1025.07 1024.99 1024.91 1024.83 1024.75 1024.67 1024.59 1024.47 1024.39 1024.31 1024.31 1024.27 1024.27 1024.27 1024.27 1024.27 1024.19 1024.11 1023.99 1023.87 1023.71 1023.59 1023.47 1023.35 1023.31 1023.23 1023.15 1023.03 1022.91 1022.75 1022.63 1022.51 1022.39 1022.27 1022.19
1024.71 1024.75 1024.75 1024.83 1024.91 1024.91 1024.91 1024.99 1025.03 1025.03 1025.03 1025.03 1025.03 1025.07 1025.11 1025.19 1025.19 1025.23 1025.31 1025.35 1025.39 1025.39 1025.35 1025.31 1025.31 1025.27 1025.27 1025.27 1025.27 1025.27 1025.23 1025.19 1025.15 1025.07 1024.99 1024.91 1024.83 1024.75 1024.71 1024.63 1024.51 1024.39 1024.31 1024.19 1024.19 1024.23 1024.27 1024.31 1024.31 1024.31 1024.19 1024.03 1023.91 1023.83 1023.71 1023.59 1023.43 1023.31 1023.15 1023.03 1022.95 1022.87 1022.75 1022.67 1022.55 1022.47 1022.31 1022.19 1022.11
1024.59 1024.63 1024.63 1024.75 1024.83 1024.87 1024.91 1024.91 1024.91 1024.91 1024.91 1024.91 1024.91 1024.99 1025.03 1025.03 1025.11 1025.19 1025.19 1025.23 1025.23 1025.23 1025.19 1025.19 1025.19 1025.19 1025.19 1025.19 1025.19 1025.19 1025.15 1025.07 1025.03 1024.95 1024.91 1024.83 1024.75 1024.67 1024.63 1024.51 1024.43 1024.27 1024.19 1024.11 1024.19 1024.31 1024.39 1024.39 1024.35 1024.27 1024.15 1024.03 1023.91 1023.79 1023.71 1023.59 1023.43 1023.23 1023.07 1022.91 1022.79 1022.71 1022.59 1022.55 1022.47 1022.35 1022.23 1022.11 1022.03
1024.47 1024.47 1024.55 1024.63 1024.75 1024.75 1024.79 1024.79 1024.75 1024.75 1024.75 1024.75 1024.79 1024.87 1024.91 1024.91 1024.99 1025.03 1025.07 1025.07 1025.07 1025.07 1025.11 1025.11 1025.15 1025.15 1025.15 1025.11 1025.11 1025.11 1025.03 1024.91 1024.87 1024.79 1024.75 1024.75 1024.71 1024.63 1024.51 1024.39 1024.27 1024.15 1024.03 1024.03 1024.31 1024.51 1024.63 1024.55 1024.43 1024.31 1024.19 1024.03 1023.91 1023.75 1023.67 1023.59 1023.43 1023.27 1023.07 1022.91 1022.71 1022.59 1022.47 1022.39 1022.35 1022.27 1022.19 1022.07 1021.99
1024.35 1024.39 1024.47 1024.55 1024.63 1024.63 1024.63 1024.63 1024.63 1024.63 1024.63 1024.63 1024.63 1024.71 1024.75 1024.79 1024.87 1024.91 1024.91 1024.91 1024.95 1024.99 1024.99 1024.99 1025.03 1025.03 1025.03 1025.03 1025.03 1024.99 1024.95 1024.87 1024.75 1024.71 1024.67 1024.63 1024.63 1024.55 1024.47 1024.31 1024.15 1024.03 1023.99 1024.11 1024.59 1024.87 1024.91 1024.83 1024.67 1024.47 1024.27 1024.07 1023.91 1023.79 1023.67 1023.51 1023.39 1023.23 1023.07 1022.91 1022.71 1022.55 1022.43 1022.31 1022.27 1022.19 1022.11 1022.03 1021.95
1024.23 1024.31 1024.39 1024.43 1024.47 1024.47 1024.47 1024.43 1024.43 1024.47 1024.47 1024.47 1024.51 1024.55 1024.63 1024.67 1024.75 1024.75 1024.79 1024.79 1024.83 1024.87 1024.91 1024.91 1024.91 1024.91 1024.99 1024.95 1024.91 1024.87 1024.79 1024.71 1024.67 1024.63 1024.55 1024.51 1024.47 1024.43 1024.31 1024.19 1024.03 1023.95 1024.03 1024.35 1024.75 1024.91 1024.91 1024.95 1024.87 1024.75 1024.55 1024.27 1024.03 1023.87 1023.67 1023.51 1023.35 1023.19 1023.03 1022.91 1022.75 1022.59 1022.43 1022.27 1022.15 1022.07 1022.03 1022.03 1021.99
1024.15 1024.15 1024.19 1024.27 1024.31 1024.31 1024.27 1024.23 1024.23 1024.23 1024.31 1024.35 1024.39 1024.43 1024.47 1024.55 1024.59 1024.63 1024.67 1024.67 1024.71 1024.75 1024.79 1024.83 1024.79 1024.87 1024.91 1024.79 1024.75 1024.71 1024.63 1024.59 1024.51 1024.47 1024.47 1024.47 1024.39 1024.31 1024.23 1024.11 1023.99 1023.91 1024.15 1024.63 1024.87 1024.91 1024.91 1024.91 1024.83 1024.83 1024.71 1024.47 1024.19 1023.99 1023.75 1023.51 1023.31 1023.15 1022.99 1022.83 1022.67 1022.51 1022.31 1022.15 1022.03 1021.95 1021.95 1021.95 1021.95
1024.03 1024.03 1024.03 1024.11 1024.11 1024.07 1024.07 1024.07 1024.07 1024.07 1024.11 1024.19 1024.23 1024.31 1024.35 1024.47 1024.47 1024.55 1024.59 1024.59 1024.59 1024.63 1024.67 1024.63 1024.67 1024.67 1024.67 1024.63 1024.55 1024.51 1024.47 1024.47 1024.39 1024.35 1024.35 1024.35 1024.31 1024.23 1024.19 1024.07 1023.91 1024.03 1024.35 1024.75 1024.91 1024.91 1024.87 1024.87 1024.83 1024.83 1024.83 1024.67 1024.43 1024.11 1023.83 1023.55 1023.31 1023.07 1022.91 1022.75 1022.55 1022.43 1022.27 1022.15 1022.03 1021.99 1021.91 1021.91 1021.87
1023.91 1023.99 1024.03 1024.03 1023.99 1023.99 1023.95 1023.95 1023.91 1023.91 1023.95 1024.03 1024.11 1024.19 1024.31 1024.39 1024.47 1024.47 1024.47 1024.51 1024.55 1024.51 1024.47 1024.47 1024.47 1024.51 1024.51 1024.47 1024.39 1024.35 1024.31 1024.31 1024.31 1024.27 1024.27 1024.27 1024.23 1024.19 1024.15 1024.03 1023.91 1024.07 1024.47 1024.87 1024.91 1024.91 1024.91 1024.83 1024.79 1024.83 1024.87 1024.79 1024.55 1024.23 1023.91 1023.63 1023.31 1023.03 1022.83 1022.67 1022.55 1022.39 1022.27 1022.19 1022.07 1022.03 1021.99 1021.91 1021.83
1023.91 1023.95 1023.99 1023.99 1023.95 1023.91 1023.91 1023.79 1023.79 1023.79 1023.83 1023.91 1024.03 1024.11 1024.23 1024.31 1024.35 1024.39 1024.35 1024.35 1024.35 1024.35 1024.35 1024.39 1024.43 1024.43 1024.39 1024.31 1024.27 1024.19 1024.19 1024.15 1024.15 1024.19 1024.19 1024.19 1024.19 1024.19 1024.11 1024.07 1023.95 1024.07 1024.47 1024.91 1024.91 1024.91 1024.91 1024.87 1024.83 1024.83 1024.87 1024.83 1024.63 1024.31 1023.99 1023.63 1023.31 1023.07 1022.87 1022.71 1022.51 1022.39 1022.31 1022.23 1022.19 1022.11 1021.99 1021.91 1021.75
1023.91 1023.95 1023.95 1023.95 1023.95 1023.91 1023.83 1023.79 1023.75 1023.75 1023.75 1023.83 1023.95 1024.03 1024.11 1024.19 1024.19 1024.19 1024.23 1024.23 1024.23 1024.27 1024.31 1024.31 1024.31 1024.31 1024.27 1024.19 1024.19 1024.11 1024.11 1024.15 1024.15 1024.15 1024.19 1024.19 1024.19 1024.15 1024.07 1024.03 1023.91 1024.07 1024.51 1024.95 1024.95 1024.91 1024.91 1024.87 1024.83 1024.83 1024.79 1024.75 1024.59 1024.31 1023.99 1023.63 1023.35 1023.15 1022.91 1022.75 1022.51 1022.43 1022.35 1022.31 1022.19 1022.07 1021.99 1021.91 1021.79
1023.91 1023.95 1023.95 1023.95 1023.95 1023.91 1023.87 1023.83 1023.75 1023.75 1023.75 1023.83 1023.91 1023.95 1024.03 1024.03 1024.07 1024.11 1024.11 1024.11 1024.15 1024.19 1024.19 1024.19 1024.19 1024.19 1024.15 1024.07 1024.07 1024.07 1024.07 1024.15 1024.19 1024.19 1024.19 1024.23 1024.19 1024.15 1024.07 1024.03 1023.91 1024.19 1024.67 1024.99 1024.99 1024.95 1024.91 1024.91 1024.83 1024.75 1024.75 1024.71 1024.51 1024.23 1023.91 1023.59 1023.31 1023.03 1022.87 1022.67 1022.55 1022.43 1022.35 1022.31 1022.19 1022.11 1022.03 1021.99 1021.95
1023.91 1023.95 1023.95 1023.95 1023.95 1023.91 1023.91 1023.91 1023.83 1023.83 1023.83 1023.83 1023.83 1023.87 1023.91 1023.95 1023.99 1023.99 1024.03 1024.03 1024.07 1024.11 1024.15 1024.11 1024.11 1024.03 1024.03 1024.03 1024.03 1024.03 1024.07 1024.15 1024.19 1024.23 1024.27 1024.27 1024.19 1024.11 1024.03 1024.03 1023.91 1024.31 1024.87 1024.99 1025.03 1025.03 1024.99 1024.95 1024.87 1024.75 1024.71 1024.63 1024.39 1024.03 1023.63 1023.35 1023.15 1022.91 1022.75 1022.59 1022.51 1022.47 1022.43 1022.35 1022.31 1022.27 1022.19 1022.15 1022.07
1023.91 1023.95 1023.95 1023.95 1023.95 1023.95 1023.95 1023.95 1023.91 1023.91 1023.91 1023.83 1023.79 1023.75 1023.79 1023.87 1023.83 1023.83 1023.91 1023.91 1024.03 1024.07 1024.15 1024.15 1024.11 1024.07 1024.03 1024.03 1023.99 1024.03 1024.07 1024.19 1024.23 1024.27 1024.27 1024.27 1024.19 1024.15 1024.07 1024.03 1024.03 1024.47 1024.99 1025.03 1025.11 1025.11 1025.03 1024.99 1024.91 1024.79 1024.71 1024.55 1024.23 1023.83 1023.39 1023.11 1022.95 1022.79 1022.67 1022.59 1022.59 1022.59 1022.55 1022.47 1022.47 1022.39 1022.35 1022.27 1022.15
1023.87 1023.91 1023.91 1023.91 1023.91 1023.91 1023.91 1023.95 1023.95 1023.91 1023.91 1023.79 1023.75 1023.71 1023.67 1023.67 1023.71 1023.71 1023.75 1023.91 1024.03 1024.11 1024.11 1024.11 1024.11 1024.11 1024.03 1023.99 1023.95 1024.03 1024.11 1024.23 1024.31 1024.35 1024.35 1024.31 1024.27 1024.19 1024.15 1024.07 1024.11 1024.59 1025.03 1025.11 1025.15 1025.19 1025.11 1025.03 1024.91 1024.83 1024.71 1024.47 1024.07 1023.63 1023.23 1022.95 1022.83 1022.75 1022.75 1022.75 1022.75 1022.71 1022.63 1022.59 1022.51 1022.47 1022.39 1022.31 1022.23
1023.75 1023.83 1023.87 1023.91 1023.91 1023.91 1023.91 1023.91 1023.91 1023.91 1023.91 1023.75 1023.71 1023.63 1023.55 1023.55 1023.59 1023.63 1023.75 1023.95 1024.03 1024.07 1024.07 1024.03 1024.03 1023.99 1023.91 1023.87 1023.91 1024.03 1024.15 1024.19 1024.31 1024.35 1024.43 1024.47 1024.39 1024.31 1024.27 1024.19 1024.19 1024.55 1024.99 1025.15 1025.19 1025.15 1025.11 1025.03 1024.91 1024.83 1024.63 1024.31 1023.91 1023.47 1023.19 1022.99 1022.91 1022.91 1022.91 1022.87 1022.79 1022.71 1022.63 1022.59 1022.51 1022.47 1022.43 1022.35 1022.31
1023.71 1023.75 1023.83 1023.87 1023.87 1023.87 1023.91 1023.91 1023.91 1023.91 1023.83 1023.75 1023.63 1023.55 1023.51 1023.47 1023.51 1023.63 1023.75 1023.99 1024.03 1024.03 1024.03 1023.99 1023.91 1023.87 1023.83 1023.91 1023.95 1024.03 1024.19 1024.23 1024.31 1024.35 1024.47 1024.47 1024.47 1024.47 1024.39 1024.31 1024.27 1024.47 1024.83 1025.11 1025.19 1025.19 1025.11 1025.03 1024.95 1024.83 1024.59 1024.23 1023.87 1023.51 1023.31 1023.15 1023.11 1023.03 1022.99 1022.91 1022.79 1022.71 1022.67 1022.63 1022.51 1022.47 1022.43 1022.35 1022.35
1023.63 1023.71 1023.75 1023.83 1023.83 1023.83 1023.83 1023.87 1023.83 1023.79 1023.75 1023.63 1023.59 1023.51 1023.47 1023.43 1023.47 1023.59 1023.75 1023.95 1023.99 1023.99 1023.99 1023.91 1023.87 1023.83 1023.91 1023.95 1024.03 1024.15 1024.23 1024.31 1024.39 1024.43 1024.47 1024.47 1024.59 1024.63 1024.59 1024.47 1024.39 1024.47 1024.71 1025.07 1025.19 1025.19 1025.15 1025.03 1024.91 1024.83 1024.63 1024.31 1023.95 1023.67 1023.47 1023.35 1023.27 1023.19 1023.07 1022.99 1022.83 1022.75 1022.67 1022.59 1022.51 1022.43 1022.35 1022.31 1022.35
1023.63 1023.71 1023.75 1023.83 1023.79 1023.79 1023.75 1023.75 1023.71 1023.67 1023.63 1023.59 1023.55 1023.47 1023.47 1023.47 1023.47 1023.63 1023.83 1024.03 1024.07 1024.03 1024.03 1023.91 1023.83 1023.83 1023.95 1024.11 1024.11 1024.15 1024.19 1024.31 1024.47 1024.55 1024.59 1024.59 1024.71 1024.83 1024.83 1024.63 1024.55 1024.51 1024.67 1024.99 1025.15 1025.19 1025.15 1025.03 1024.91 1024.83 1024.67 1024.39 1024.11 1023.91 1023.75 1023.59 1023.43 1023.27 1023.15 1023.03 1022.91 1022.75 1022.67 1022.59 1022.47 1022.39 1022.31 1022.27 1022.31
1023.67 1023.75 1023.79 1023.79 1023.75 1023.75 1023.67 1023.63 1023.59 1023.59 1023.59 1023.55 1023.51 1023.47 1023.47 1023.51 1023.59 1023.75 1023.91 1024.03 1024.07 1024.07 1024.03 1023.91 1023.83 1023.91 1024.03 1024.19 1024.19 1024.11 1024.15 1024.31 1024.47 1024.63 1024.67 1024.71 1024.79 1024.91 1024.95 1024.75 1024.63 1024.63 1024.67 1024.91 1025.07 1025.15 1025.15 1025.03 1024.91 1024.83 1024.71 1024.43 1024.23 1024.03 1023.83 1023.63 1023.47 1023.31 1023.19 1023.03 1022.91 1022.75 1022.67 1022.55 1022.47 1022.39 1022.31 1022.19 1022.19
1023.71 1023.75 1023.75 1023.71 1023.67 1023.63 1023.59 1023.47 1023.47 1023.47 1023.47 1023.51 1023.51 1023.51 1023.55 1023.63 1023.75 1023.91 1023.99 1024.03 1024.03 1024.03 1023.91 1023.83 1023.83 1023.95 1024.11 1024.23 1024.15 1024.11 1024.19 1024.23 1024.35 1024.51 1024.67 1024.79 1024.75 1024.83 1024.83 1024.75 1024.67 1024.63 1024.67 1024.75 1024.95 1025.07 1025.11 1025.03 1024.95 1024.87 1024.75 1024.55 1024.35 1024.11 1023.87 1023.63 1023.47 1023.31 1023.19 1023.03 1022.95 1022.83 1022.71 1022.55 1022.43 1022.35 1022.31 1022.19 1022.11
Thickness
5512 5510 5507 5505 5503 5501 5499 5497 5494 5492 5491 5489 5488 5485 5483 5481 5478 5476 5473 5470 5467 5465 5462 5460 5458 5455 5452 5449 5447 5445 5441 5439 5437 5434 5431 5428 5425 5422 5418 5416 5413 5409 5406 5403 5400 5398 5395 5392 5388 5386 5382 5378 5374 5371 5367 5363 5359 5356 5352 5348 5345 5342 5338 5335 5331 5327 5324 5320 5317
5509 5507 5504 5501 5500 5498 5496 5494 5491 5489 5487 5485 5483 5481 5478 5476 5474 5472 5469 5466 5463 5460 5458 5455 5453 5450 5448 5444 5442 5440 5436 5434 5431 5428 5426 5422 5419 5416 5413 5410 5406 5403 5400 5397 5393 5391 5387 5384 5381 5378 5374 5371 5367 5364 5360 5355 5351 5348 5345 5341 5337 5333 5330 5326 5323 5318 5315 5312 5308
5505 5503 5501 5500 5498 5496 5493 5491 5489 5487 5484 5482 5479 5476 5474 5471 5469 5466 5464 5461 5459 5456 5454 5451 5448 5445 5443 5440 5437 5434 5432 5428 5425 5423 5420 5417 5414 5411 5407 5404 5401 5397 5393 5390 5387 5383 5380 5376 5374 5370 5367 5363 5360 5356 5352 5348 5343 5340 5337 5333 5329 5325 5321 5318 5314 5310 5307 5304 5300
5501 5499 5498 5496 5494 5492 5489 5487 5485 5483 5480 5477 5475 5472 5470 5467 5465 5462 5460 5457 5455 5452 5449 5446 5444 5441 5438 5435 5432 5429 5426 5423 5420 5417 5415 5412 5408 5405 5402 5398 5395 5392 5387 5383 5380 5376 5372 5369 5366 5363 5360 5357 5353 5348 5345 5340 5336 5332 5328 5324 5320 5317 5313 5309 5305 5302 5299 5296 5293
5497 5496 5493 5491 5489 5487 5485 5483 5481 5478 5476 5473 5471 5468 5466 5464 5461 5459 5456 5454 5451 5448 5444 5441 5438 5436 5433 5430 5427 5424 5421 5418 5415 5412 5410 5406 5403 5399 5396 5392 5389 5386 5382 5378 5374 5370 5365 5362 5360 5357 5354 5349 5346 5342 5337 5333 5329 5324 5320 5315 5312 5309 5306 5302 5297 5294 5291 5289 5286
5494 5492 5490 5487 5485 5484 5482 5479 5477 5474 5472 5469 5468 5465 5463 5460 5457 5455 5452 5449 5446 5443 5440 5437 5433 5431 5428 5425 5422 5419 5417 5414 5411 5408 5404 5401 5397 5393 5390 5387 5384 5380 5376 5372 5368 5364 5360 5356 5354 5350 5346 5342 5339 5335 5330 5326 5321 5317 5312 5308 5304 5301 5298 5295 5291 5287 5284 5282 5280
5492 5489 5487 5484 5482 5480 5478 5476 5474 5471 5469 5467 5464 5462 5459 5456 5453 5451 5448 5445 5442 5439 5435 5433 5429 5426 5423 5421 5418 5415 5411 5408 5405 5401 5398 5395 5392 5388 5384 5381 5377 5374 5370 5367 5362 5359 5354 5350 5348 5345 5341 5335 5332 5327 5322 5318 5313 5309 5304 5301 5297 5294 5291 5288 5284 5281 5279 5277 5276
5488 5485 5483 5481 5479 5477 5475 5473 5471 5469 5467 5464 5461 5458 5455 5452 5449 5447 5444 5441 5438 5435 5432 5429 5425 5422 5419 5416 5413 5409 5407 5403 5400 5396 5393 5390 5386 5382 5379 5375 5372 5368 5364 5361 5357 5353 5348 5344 5341 5338 5334 5329 5325 5320 5315 5309 5306 5301 5298 5294 5291 5288 5284 5281 5278 5277 5275 5274 5272
5485 5483 5479 5477 5476 5474 5472 5469 5468 5466 5463 5460 5457 5454 5451 5448 5445 5442 5441 5438 5434 5431 5427 5424 5420 5417 5414 5411 5408 5405 5401 5398 5394 5391 5387 5384 5380 5377 5373 5370 5366 5362 5358 5354 5350 5346 5342 5339 5335 5331 5326 5322 5318 5313 5308 5303 5299 5295 5292 5289 5286 5284 5280 5277 5275 5274 5272 5270 5269
5483 5480 5477 5475 5473 5471 5469 5467 5465 5462 5459 5457 5453 5450 5447 5444 5441 5439 5436 5433 5430 5426 5422 5419 5416 5412 5409 5406 5403 5400 5396 5392 5388 5385 5381 5378 5374 5371 5367 5363 5360 5356 5352 5348 5344 5340 5337 5333 5329 5325 5319 5315 5312 5307 5302 5297 5294 5290 5288 5285 5282 5279 5276 5273 5272 5271 5269 5267 5266
5479 5477 5474 5472 5470 5468 5467 5465 5462 5459 5457 5454 5451 5447 5444 5441 5438 5435 5432 5428 5425 5422 5418 5415 5411 5408 5404 5402 5398 5395 5391 5387 5383 5380 5377 5373 5370 5366 5361 5357 5353 5349 5346 5342 5338 5335 5332 5328 5324 5319 5314 5309 5305 5302 5297 5293 5289 5286 5283 5281 5278 5276 5273 5271 5269 5268 5265 5264 5262
5475 5473 5470 5469 5467 5465 5464 5462 5459 5457 5453 5451 5447 5444 5442 5438 5434 5431 5427 5424 5421 5417 5414 5411 5407 5404 5400 5397 5393 5390 5386 5382 5379 5375 5372 5369 5364 5360 5356 5351 5348 5345 5341 5338 5333 5330 5326 5321 5318 5313 5309 5304 5299 5295 5292 5288 5284 5282 5279 5277 5275 5273 5270 5268 5266 5263 5262 5261 5259
5472 5469 5467 5465 5463 5462 5461 5459 5457 5454 5450 5447 5444 5441 5438 5434 5430 5426 5423 5420 5417 5413 5410 5407 5403 5400 5397 5393 5388 5385 5381 5378 5374 5371 5367 5363 5359 5355 5352 5348 5344 5340 5337 5332 5328 5324 5320 5315 5311 5307 5302 5298 5293 5289 5286 5282 5280 5277 5275 5273 5271 5269 5267 5265 5263 5261 5259 5258 5256
5469 5467 5464 5462 5460 5459 5458 5456 5453 5451 5447 5444 5441 5437 5434 5430 5427 5423 5419 5416 5413 5409 5406 5402 5399 5396 5392 5389 5385 5381 5377 5373 5369 5366 5362 5358 5355 5352 5348 5344 5340 5335 5332 5327 5323 5318 5314 5310 5305 5300 5296 5292 5288 5284 5281 5278 5276 5273 5271 5269 5267 5266 5264 5262 5260 5259 5257 5255 5254
5466 5463 5461 5459 5458 5456 5455 5452 5450 5447 5444 5440 5437 5434 5430 5427 5423 5419 5416 5412 5408 5405 5402 5399 5395 5391 5387 5385 5381 5377 5373 5368 5365 5362 5358 5355 5351 5347 5344 5340 5335 5331 5327 5322 5317 5312 5308 5304 5300 5295 5291 5287 5283 5280 5277 5274 5272 5270 5267 5265 5263 5262 5261 5260 5258 5257 5255 5253 5252
5464 5461 5458 5456 5455 5453 5451 5449 5447 5444 5441 5437 5433 5430 5426 5423 5419 5415 5411 5408 5404 5401 5398 5395 5391 5388 5383 5380 5377 5373 5369 5365 5361 5357 5355 5351 5347 5343 5338 5334 5330 5326 5321 5317 5312 5307 5302 5297 5294 5290 5286 5282 5279 5276 5273 5271 5268 5266 5264 5262 5260 5259 5258 5257 5256 5255 5253 5251 5250
5461 5458 5456 5454 5451 5449 5447 5445 5443 5440 5437 5433 5429 5426 5423 5419 5416 5411 5408 5404 5401 5398 5393 5390 5387 5384 5380 5376 5371 5368 5364 5361 5357 5353 5350 5346 5342 5338 5333 5329 5325 5322 5317 5312 5307 5302 5298 5293 5288 5284 5281 5277 5274 5271 5269 5267 5264 5263 5261 5259 5258 5256 5255 5254 5254 5252 5251 5248 5247
5458 5455 5452 5450 5448 5445 5443 5441 5438 5436 5433 5429 5426 5422 5419 5415 5411 5408 5404 5400 5397 5394 5390 5386 5382 5379 5375 5371 5368 5363 5360 5357 5353 5348 5345 5341 5337 5333 5329 5325 5320 5316 5312 5307 5302 5298 5293 5288 5283 5279 5275 5273 5270 5267 5265 5263 5261 5259 5258 5256 5254 5253 5252 5252 5250 5249 5247 5246 5244
5457 5453 5450 5447 5445 5443 5440 5437 5434 5432 5429 5425 5422 5419 5415 5412 5408 5404 5401 5397 5394 5390 5387 5382 5378 5374 5371 5367 5363 5359 5355 5351 5348 5344 5339 5335 5332 5328 5324 5320 5316 5311 5306 5301 5297 5292 5287 5282 5278 5274 5272 5269 5266 5264 5262 5261 5259 5257 5255 5253 5251 5250 5249 5249 5247 5246 5245 5243 5241
5454 5451 5447 5445 5442 5439 5437 5434 5431 5428 5425 5422 5418 5415 5412 5408 5404 5401 5398 5394 5390 5386 5382 5378 5375 5371 5367 5363 5359 5354 5350 5347 5343 5339 5335 5330 5327 5323 5319 5315 5310 5305 5300 5296 5291 5287 5282 5278 5274 5271 5267 5265 5263 5261 5260 5258 5256 5254 5252 5250 5249 5247 5247 5246 5244 5243 5241 5240 5239
5451 5449 5445 5442 5439 5436 5433 5431 5427 5424 5421 5418 5415 5411 5408 5405 5401 5398 5394 5390 5386 5382 5378 5374 5371 5367 5362 5358 5354 5350 5345 5341 5338 5334 5330 5326 5322 5318 5313 5309 5305 5300 5295 5290 5286 5282 5278 5274 5270 5266 5264 5261 5259 5258 5257 5255 5254 5252 5250 5248 5247 5245 5244 5243 5241 5240 5239 5237 5236
5449 5445 5442 5439 5436 5433 5430 5426 5423 5420 5418 5415 5412 5408 5405 5402 5398 5394 5390 5386 5382 5378 5374 5371 5367 5363 5358 5353 5349 5345 5340 5336 5332 5329 5326 5322 5317 5313 5308 5303 5299 5295 5291 5286 5282 5278 5273 5269 5266 5263 5260 5259 5257 5255 5253 5252 5251 5250 5249 5248 5246 5244 5242 5240 5239 5237 5236 5234 5233
5446 5443 5440 5436 5433 5429 5426 5423 5420 5418 5415 5412 5409 5405 5402 5399 5394 5390 5386 5382 5378 5375 5371 5366 5362 5358 5353 5349 5345 5341 5337 5333 5328 5324 5321 5316 5313 5308 5303 5298 5294 5290 5286 5282 5277 5273 5268 5265 5262 5259 5257 5256 5254 5253 5250 5249 5248 5247 5246 5245 5244 5242 5241 5239 5237 5235 5233 5231 5230
5443 5440 5437 5433 5429 5426 5424 5420 5418 5415 5412 5408 5405 5402 5398 5394 5391 5386 5382 5378 5374 5370 5366 5362 5357 5353 5349 5345 5340 5336 5333 5329 5325 5321 5316 5311 5307 5302 5298 5294 5289 5286 5282 5278 5273 5267 5263 5261 5258 5256 5254 5253 5251 5249 5248 5246 5245 5244 5243 5242 5242 5240 5239 5236 5235 5232 5231 5229 5227
5440 5437 5433 5430 5427 5424 5421 5418 5416 5412 5409 5406 5402 5398 5395 5391 5387 5383 5379 5375 5370 5366 5361 5357 5353 5348 5344 5340 5336 5332 5328 5325 5321 5318 5312 5307 5302 5297 5293 5289 5286 5282 5278 5273 5267 5261 5257 5255 5253 5252 5251 5249 5248 5247 5245 5244 5243 5242 5240 5239 5238 5237 5236 5234 5232 5230 5228 5226 5224
5437 5434 5430 5427 5424 5421 5418 5415 5413 5409 5406 5402 5398 5395 5391 5387 5383 5379 5375 5370 5366 5362 5357 5353 5349 5345 5340 5336 5332 5328 5324 5320 5316 5312 5308 5303 5298 5293 5289 5285 5281 5278 5274 5268 5262 5257 5254 5251 5248 5247 5246 5245 5244 5243 5242 5241 5240 5238 5237 5236 5235 5234 5232 5231 5230 5228 5226 5223 5221
5434 5431 5428 5425 5422 5419 5416 5413 5410 5406 5402 5399 5396 5391 5388 5383 5379 5375 5371 5366 5362 5357 5353 5349 5345 5341 5337 5333 5329 5325 5321 5316 5312 5307 5303 5298 5294 5289 5285 5281 5277 5274 5270 5263 5258 5254 5251 5249 5246 5243 5242 5241 5240 5240 5239 5239 5238 5236 5235 5233 5233 5231 5230 5229 5227 5225 5223 5220 5218
5432 5428 5425 5422 5419 5416 5413 5410 5407 5403 5400 5396 5392 5388 5383 5379 5375 5371 5367 5362 5358 5353 5349 5345 5341 5337 5333 5330 5325 5321 5317 5313 5308 5304 5299 5293 5289 5284 5281 5277 5274 5269 5264 5258 5254 5251 5248 5246 5243 5240 5238 5237 5236 5236 5235 5235 5235 5234 5233 5232 5230 5229 5228 5225 5224 5222 5220 5218 5216
5428 5424 5421 5418 5416 5412 5409 5406 5404 5400 5397 5392 5388 5384 5379 5374 5370 5366 5362 5358 5354 5350 5346 5342 5337 5332 5328 5325 5322 5317 5313 5309 5304 5299 5294 5289 5285 5280 5276 5273 5270 5266 5260 5254 5251 5247 5245 5243 5240 5237 5236 5233 5233 5232 5233 5232 5233 5232 5231 5229 5228 5226 5224 5222 5221 5219 5217 5215 5214
5424 5421 5417 5414 5411 5409 5406 5403 5400 5397 5393 5389 5384 5379 5375 5370 5366 5362 5358 5355 5350 5346 5342 5337 5333 5329 5325 5321 5317 5314 5309 5305 5300 5295 5290 5285 5281 5276 5273 5269 5267 5263 5257 5250 5247 5245 5242 5240 5237 5236 5233 5231 5229 5229 5229 5230 5230 5228 5228 5226 5225 5223 5221 5219 5217 5215 5214 5213 5212
5419 5416 5412 5409 5407 5404 5402 5399 5396 5392 5389 5384 5380 5375 5370 5366 5363 5359 5355 5351 5347 5341 5337 5333 5329 5326 5321 5318 5314 5310 5305 5300 5295 5290 5285 5280 5276 5272 5269 5266 5263 5259 5253 5247 5244 5241 5239 5237 5235 5233 5231 5229 5228 5227 5228 5227 5227 5226 5225 5223 5222 5220 5218 5216 5214 5213 5211 5210 5209
5415 5411 5408 5405 5403 5400 5397 5394 5391 5387 5384 5380 5376 5371 5367 5363 5359 5356 5352 5347 5343 5338 5333 5329 5325 5321 5317 5314 5309 5305 5300 5295 5290 5285 5280 5276 5272 5269 5265 5263 5260 5255 5248 5244 5241 5238 5236 5234 5232 5231 5229 5227 5226 5226 5225 5225 5225 5224 5222 5221 5219 5217 5215 5213 5211 5210 5209 5207 5206
5411 5407 5403 5401 5398 5395 5391 5388 5385 5382 5379 5375 5372 5368 5364 5360 5356 5351 5346 5342 5338 5333 5329 5325 5322 5318 5314 5309 5305 5300 5295 5290 5285 5280 5276 5271 5268 5265 5262 5259 5257 5251 5244 5241 5238 5235 5233 5232 5230 5228 5227 5225 5224 5224 5225 5224 5223 5222 5221 5219 5217 5214 5212 5210 5208 5207 5205 5204 5202
5407 5403 5399 5396 5393 5389 5386 5382 5379 5376 5374 5371 5368 5364 5360 5356 5352 5348 5342 5337 5333 5328 5324 5320 5317 5313 5309 5304 5300 5296 5291 5285 5280 5275 5272 5268 5264 5261 5259 5256 5253 5247 5240 5237 5234 5232 5230 5229 5227 5226 5224 5223 5223 5224 5224 5224 5222 5220 5219 5216 5213 5211 5208 5206 5205 5203 5202 5200 5200
5402 5398 5395 5391 5388 5384 5380 5377 5373 5370 5369 5367 5364 5360 5356 5353 5349 5344 5339 5334 5328 5323 5319 5315 5312 5307 5303 5300 5295 5291 5286 5281 5275 5271 5267 5263 5260 5257 5255 5253 5250 5243 5237 5235 5232 5229 5227 5226 5225 5223 5222 5221 5221 5222 5223 5222 5220 5218 5215 5212 5210 5207 5205 5203 5202 5201 5200 5198 5197
5398 5395 5391 5387 5384 5380 5376 5372 5369 5366 5364 5361 5359 5356 5352 5349 5344 5339 5334 5328 5323 5319 5314 5311 5307 5303 5299 5296 5291 5286 5280 5276 5272 5267 5263 5259 5256 5254 5251 5249 5246 5241 5235 5232 5229 5227 5225 5224 5223 5221 5220 5220 5220 5221 5220 5219 5217 5214 5212 5209 5207 5205 5203 5201 5199 5199 5197 5196 5195
5394 5391 5386 5383 5379 5375 5371 5368 5365 5362 5360 5356 5354 5351 5348 5344 5339 5334 5329 5323 5319 5314 5310 5306 5302 5299 5295 5291 5286 5280 5276 5272 5267 5263 5259 5255 5253 5250 5248 5245 5243 5239 5234 5230 5227 5224 5222 5221 5220 5218 5218 5218 5218 5218 5218 5216 5213 5211 5209 5206 5205 5203 5201 5199 5198 5197 5196 5194 5193
5390 5386 5382 5378 5375 5371 5367 5364 5361 5358 5355 5352 5348 5346 5343 5340 5335 5330 5324 5318 5314 5310 5306 5302 5298 5294 5290 5285 5281 5276 5271 5267 5263 5259 5256 5253 5249 5246 5243 5241 5239 5236 5232 5227 5224 5222 5220 5219 5218 5216 5215 5215 5215 5215 5213 5212 5209 5207 5206 5204 5203 5201 5199 5198 5197 5196 5194 5193 5191
5386 5382 5378 5374 5370 5366 5363 5360 5357 5354 5351 5347 5344 5341 5338 5334 5330 5325 5319 5313 5309 5305 5302 5297 5294 5290 5285 5280 5276 5271 5268 5263 5259 5255 5252 5249 5245 5242 5239 5237 5236 5233 5230 5226 5222 5220 5218 5217 5215 5214 5213 5212 5212 5210 5209 5208 5206 5205 5203 5202 5200 5199 5197 5196 5195 5195 5193 5192 5190
5381 5377 5373 5369 5366 5363 5360 5357 5353 5350 5347 5343 5340 5336 5333 5329 5325 5319 5314 5309 5304 5300 5297 5294 5290 5286 5280 5275 5271 5269 5265 5260 5256 5252 5249 5246 5242 5238 5235 5234 5233 5231 5228 5224 5221 5218 5216 5215 5213 5212 5210 5209 5208 5208 5206 5205 5204 5202 5201 5199 5198 5197 5196 5195 5194 5193 5192 5191 5190
5377 5373 5369 5366 5363 5360 5357 5354 5350 5346 5343 5339 5335 5332 5328 5324 5318 5313 5309 5305 5300 5296 5292 5290 5285 5281 5276 5271 5267 5265 5261 5257 5254 5249 5246 5242 5239 5236 5233 5232 5230 5228 5226 5223 5220 5217 5214 5213 5211 5209 5208 5206 5205 5205 5204 5203 5201 5200 5199 5197 5196 5195 5195 5194 5193 5192 5191 5190 5189